Simultaneous Nadir Overpasses (SNOs) Predictions

Prediction of SNOs between GOES-15 and TERRA Satellite Orbit:

Table of predicted SNOs for the next 14.0 days since TLE Epoch: 11/16/2024
Index Date Time (GOES-15) GOES-15 Lat,Lon TERRA Lat,Lon Distance(km) Time Diff (sec)
1 11/17/2024 17:33:12 0.21, 61.68 0.16, 61.34 38.75 80
2 11/19/2024 17:12:17 0.21, 61.73 1.04, 65.74 456.32 80
3 11/20/2024 05:32:00 -0.20, 61.63 -0.06, 60.94 77.43 80
4 11/22/2024 05:16:25 -0.20, 61.66 -0.98, 65.34 418.60 80
5 11/22/2024 17:36:14 0.19, 61.78 -0.07, 60.53 141.52 80
6 11/24/2024 17:15:18 0.19, 61.82 0.84, 64.94 354.12 80
7 11/25/2024 05:35:00 -0.18, 61.73 0.17, 60.14 180.85 80
8 11/27/2024 05:19:24 -0.18, 61.77 -0.79, 64.54 315.53 80
9 11/27/2024 17:39:12 0.17, 61.87 -0.25, 59.73 243.18 80
10 11/29/2024 17:18:14 0.17, 61.92 0.63, 64.14 252.03 80
